• In Russia
  • List of Countries
  • For 7 days
  • Water Temperature
  • Satellite Maps
  • Weather Map
  • Weather Widgets
  • user-avatar
    Login

    Hourly Weather Yulara

    Today, 19 January, Thursday

    Time Temperature Precipitation Wind Pressure Humidity
    00:00 +33°C° 0.6 mm 5 mps 712 mmHg 59%
    01:00 +32°C° 0 mm 5 mps 712 mmHg 61%
    02:00 +32°C° 0 mm 5 mps 712 mmHg 63%
    03:00 +30°C° 0 mm 5 mps 712 mmHg 65%
    04:00 +30°C° 0 mm 5 mps 712 mmHg 66%
    05:00 +30°C° 0 mm 5 mps 712 mmHg 67%
    06:00 +29°C° 0 mm 5 mps 712 mmHg 68%
    07:00 +30°C° 0 mm 6 mps 713 mmHg 64%
    08:00 +32°C° 0 mm 7 mps 713 mmHg 60%
    09:00 +33°C° 0 mm 7 mps 713 mmHg 55%
    10:00 +34°C° 0 mm 7 mps 713 mmHg 52%
    11:00 +35°C° 0 mm 7 mps 713 mmHg 49%
    12:00 +36°C° 0 mm 7 mps 712 mmHg 45%
    13:00 +36°C° 0 mm 7 mps 712 mmHg 44%
    14:00 +38°C° 0 mm 7 mps 711 mmHg 43%
    15:00 +38°C° 0 mm 7 mps 710 mmHg 43%
    16:00 +38°C° 0.1 mm 6 mps 710 mmHg 43%
    17:00 +38°C° 0.1 mm 6 mps 710 mmHg 43%
    18:00 +37°C° 0.1 mm 5 mps 710 mmHg 43%
    19:00 +36°C° 1.2 mm 5 mps 710 mmHg 47%
    20:00 +35°C° 1.2 mm 5 mps 711 mmHg 51%
    21:00 +34°C° 0 mm 4 mps 711 mmHg 53%
    22:00 +34°C° 0.3 mm 4 mps 711 mmHg 55%
    23:00 +33°C° 0.3 mm 4 mps 711 mmHg 57%

    Tomorrow, 20 January, Friday

    Time Temperature Precipitation Wind Pressure Humidity
    00:00 +33°C° 0.3 mm 5 mps 711 mmHg 59%
    01:00 +32°C° 0 mm 5 mps 711 mmHg 61%
    02:00 +32°C° 0 mm 5 mps 711 mmHg 63%
    03:00 +30°C° 0 mm 4 mps 711 mmHg 65%
    04:00 +30°C° 0 mm 4 mps 711 mmHg 66%
    05:00 +29°C° 0 mm 4 mps 711 mmHg 68%
    06:00 +29°C° 0 mm 3 mps 711 mmHg 70%
    07:00 +30°C° 0.8 mm 4 mps 711 mmHg 66%
    08:00 +32°C° 0.8 mm 5 mps 712 mmHg 61%
    09:00 +33°C° 0.8 mm 5 mps 712 mmHg 57%
    10:00 +34°C° 0.5 mm 5 mps 712 mmHg 54%
    11:00 +34°C° 0.5 mm 5 mps 712 mmHg 50%
    12:00 +35°C° 0.5 mm 5 mps 712 mmHg 46%
    13:00 +36°C° 0.3 mm 4 mps 712 mmHg 44%
    14:00 +36°C° 0.3 mm 4 mps 711 mmHg 42%
    15:00 +37°C° 0.3 mm 4 mps 711 mmHg 40%
    16:00 +37°C° 0.1 mm 3 mps 711 mmHg 40%
    17:00 +37°C° 0.1 mm 2 mps 711 mmHg 40%
    18:00 +37°C° 0.1 mm 2 mps 711 mmHg 40%
    19:00 +36°C° 0.5 mm 2 mps 711 mmHg 43%
    20:00 +35°C° 0.5 mm 2 mps 712 mmHg 47%
    21:00 +34°C° 0.5 mm 2 mps 712 mmHg 50%
    22:00 +34°C° 1.3 mm 2 mps 712 mmHg 53%
    23:00 +32°C° 1.3 mm 2 mps 712 mmHg 57%

    Day after tomorrow, 21 January, Saturday

    Time Temperature Precipitation Wind Pressure Humidity
    00:00 +31°C° 1.3 mm 2 mps 713 mmHg 60%
    01:00 +31°C° 0.2 mm 2 mps 712 mmHg 61%
    02:00 +31°C° 0.2 mm 2 mps 712 mmHg 62%
    03:00 +31°C° 0.2 mm 2 mps 712 mmHg 63%
    04:00 +30°C° 0.8 mm 2 mps 713 mmHg 64%
    05:00 +30°C° 0.8 mm 2 mps 713 mmHg 65%
    06:00 +30°C° 0.8 mm 2 mps 713 mmHg 66%
    07:00 +31°C° 0 mm 2 mps 714 mmHg 61%
    08:00 +32°C° 0 mm 2 mps 714 mmHg 56%
    09:00 +34°C° 0 mm 3 mps 714 mmHg 51%
    10:00 +35°C° 0.1 mm 3 mps 714 mmHg 48%
    11:00 +36°C° 0.1 mm 3 mps 714 mmHg 44%
    12:00 +37°C° 0.1 mm 4 mps 714 mmHg 41%
    13:00 +37°C° 0.1 mm 4 mps 713 mmHg 40%
    14:00 +38°C° 0.1 mm 4 mps 713 mmHg 39%
    15:00 +38°C° 0.1 mm 4 mps 713 mmHg 37%
    16:00 +38°C° 0 mm 4 mps 713 mmHg 37%
    17:00 +38°C° 0 mm 3 mps 713 mmHg 37%
    18:00 +38°C° 0 mm 3 mps 713 mmHg 37%
    19:00 +37°C° 0 mm 3 mps 713 mmHg 39%
    20:00 +37°C° 0 mm 3 mps 713 mmHg 42%
    21:00 +36°C° 0 mm 2 mps 714 mmHg 44%
    22:00 +35°C° 0.3 mm 2 mps 714 mmHg 46%
    23:00 +35°C° 0.3 mm 2 mps 714 mmHg 48%

    22 January, Sunday

    Time Temperature Precipitation Wind Pressure Humidity
    00:00 +34°C° 0.3 mm 2 mps 714 mmHg 50%
    01:00 +34°C° 0 mm 2 mps 714 mmHg 51%
    02:00 +33°C° 0 mm 1 mps 714 mmHg 53%
    03:00 +32°C° 0 mm 1 mps 713 mmHg 54%
    04:00 +32°C° 0 mm 1 mps 713 mmHg 56%
    05:00 +32°C° 0 mm 1 mps 714 mmHg 57%
    06:00 +31°C° 0 mm 1 mps 714 mmHg 58%
    07:00 +32°C° 0 mm 1 mps 714 mmHg 54%
    08:00 +35°C° 0 mm 2 mps 715 mmHg 49%
    09:00 +36°C° 0 mm 2 mps 715 mmHg 44%
    10:00 +37°C° 0 mm 2 mps 715 mmHg 41%
    11:00 +38°C° 0 mm 3 mps 715 mmHg 37%
    12:00 +39°C° 0 mm 3 mps 714 mmHg 34%
    13:00 +39°C° 0 mm 3 mps 714 mmHg 33%
    14:00 +39°C° 0 mm 3 mps 713 mmHg 33%
    15:00 +40°C° 0 mm 4 mps 713 mmHg 33%
    16:00 +39°C° 0 mm 3 mps 713 mmHg 33%
    17:00 +39°C° 0 mm 3 mps 713 mmHg 32%
    18:00 +39°C° 0 mm 3 mps 713 mmHg 32%
    19:00 +38°C° 0 mm 2 mps 713 mmHg 35%
    20:00 +37°C° 0 mm 2 mps 714 mmHg 37%
    21:00 +36°C° 0 mm 1 mps 714 mmHg 39%
    22:00 +36°C° 0 mm 2 mps 714 mmHg 40%
    23:00 +36°C° 0 mm 2 mps 714 mmHg 41%

    23 January, Monday

    Time Temperature Precipitation Wind Pressure Humidity
    00:00 +35°C° 0 mm 2 mps 714 mmHg 42%
    01:00 +35°C° 0 mm 3 mps 714 mmHg 44%
    02:00 +34°C° 0 mm 3 mps 713 mmHg 47%
    03:00 +33°C° 0 mm 4 mps 713 mmHg 49%
    04:00 +33°C° 0.3 mm 5 mps 713 mmHg 53%
    05:00 +32°C° 0.3 mm 6 mps 713 mmHg 56%
    06:00 +30°C° 0.3 mm 7 mps 713 mmHg 59%
    07:00 +32°C° 0.1 mm 6 mps 714 mmHg 57%
    08:00 +32°C° 0.1 mm 5 mps 714 mmHg 55%
    09:00 +33°C° 0.1 mm 4 mps 715 mmHg 53%
    10:00 +34°C° 0 mm 4 mps 714 mmHg 47%
    11:00 +36°C° 0 mm 4 mps 714 mmHg 42%
    12:00 +37°C° 0 mm 3 mps 714 mmHg 37%
    13:00 +38°C° 0 mm 3 mps 714 mmHg 35%
    14:00 +38°C° 0 mm 2 mps 714 mmHg 34%
    15:00 +39°C° 0 mm 2 mps 713 mmHg 33%
    16:00 +38°C° 0.1 mm 2 mps 713 mmHg 34%
    17:00 +38°C° 0.1 mm 2 mps 713 mmHg 35%
    18:00 +38°C° 0.1 mm 2 mps 714 mmHg 36%
    19:00 +37°C° 0 mm 2 mps 714 mmHg 38%
    20:00 +37°C° 0 mm 2 mps 714 mmHg 40%
    21:00 +36°C° 0 mm 2 mps 715 mmHg 43%
    22:00 +35°C° 0 mm 2 mps 715 mmHg 44%
    23:00 +35°C° 0 mm 2 mps 715 mmHg 45%

    24 January, Tuesday

    Time Temperature Precipitation Wind Pressure Humidity
    00:00 +34°C° 0 mm 3 mps 715 mmHg 46%
    01:00 +34°C° 0 mm 3 mps 715 mmHg 50%
    02:00 +33°C° 0 mm 4 mps 715 mmHg 53%
    03:00 +32°C° 0 mm 5 mps 714 mmHg 56%
    04:00 +32°C° 0 mm 5 mps 715 mmHg 59%
    05:00 +30°C° 0 mm 5 mps 715 mmHg 62%
    06:00 +30°C° 0 mm 5 mps 716 mmHg 65%
    07:00 +30°C° 0 mm 6 mps 716 mmHg 63%
    08:00 +32°C° 0 mm 7 mps 717 mmHg 60%
    09:00 +32°C° 0 mm 8 mps 718 mmHg 58%
    10:00 +34°C° 0 mm 8 mps 717 mmHg 53%
    11:00 +35°C° 0 mm 8 mps 717 mmHg 48%
    12:00 +37°C° 0 mm 8 mps 717 mmHg 43%
    13:00 +38°C° 0.2 mm 8 mps 717 mmHg 43%
    14:00 +38°C° 0.2 mm 9 mps 716 mmHg 43%
    15:00 +38°C° 0.2 mm 9 mps 716 mmHg 43%
    16:00 +37°C° 0.2 mm 9 mps 716 mmHg 43%
    17:00 +37°C° 0.2 mm 8 mps 716 mmHg 44%
    18:00 +35°C° 0.2 mm 8 mps 716 mmHg 44%
    19:00 +35°C° 0 mm 8 mps 717 mmHg 46%
    20:00 +34°C° 0 mm 8 mps 717 mmHg 47%
    21:00 +33°C° 0 mm 8 mps 718 mmHg 49%
    22:00 +32°C° 0.4 mm 8 mps 718 mmHg 50%
    23:00 +31°C° 0.4 mm 8 mps 718 mmHg 52%
    Show more